Weather History for Los Alamos, NM

Change the Weather History Date:

Friday, February 14, 2014

  Actual Average Record
Temperature  
Mean Temperature 51 °F -  
Max Temperature 61 °F 43 °F 61 °F (1957)
Min Temperature 41 °F 23 °F 1 °F (1966)
Degree Days  
Heating Degree Days 14    
Growing Degree Days 1 (Base 50)    
Moisture  
Dew Point 19 °F    
Average Humidity 30    
Maximum Humidity 45    
Minimum Humidity 17    
Precipitation  
Precipitation 0.00 in - - ()
Sea Level Pressure  
Sea Level Pressure 30.14 in    
Wind  
Wind Speed 5 mph (South)    
Max Wind Speed 18 mph    
Max Gust Speed 26 mph    
Visibility 10 miles    
Events      
Averages and records for this station are not official NWS values.
T = Trace of Precipitation, MM = Missing Value Source: NWS Daily Summary

Daily Weather History Graph

Daily Weather History Graph

Search for Another Location

Airport:

Trip Planner

Search our weather history database for the weather conditions in past years. The results will help you decide how hot, cold, wet, or windy it might be!

Date:

Astronomy

Feb. 14, 2014 Rise Set
Actual Time 6:53 AM MST 5:45 PM MST
Civil Twilight 6:26 AM MST 6:12 PM MST
Nautical Twilight 5:56 AM MST 6:42 PM MST
Astronomical Twilight 5:27 AM MST 7:11 PM MST
Moon 5:50 PM MST (2/14) 6:22 AM MST (2/14)
Length of Visible Light 11h 45m
Length of Day
10h 52m
Full, 100% of the Moon is Illuminated
Feb 14
Full
Feb 14
Full
Feb 22
Last Quarter
Mar 1
New
Mar 8
First Quarter

Hourly Weather History & Observations

Time (MST) Temp. Windchill Dew Point Humidity Pressure Visibility Wind Dir Wind Speed Gust Speed Precip Events Conditions
12:15 AM 50.0 °F - 13.1 °F 23% 30.09 in 10.0 mi SSW 5.8 mph - N/A   Clear
12:35 AM 49.3 °F - 13.1 °F 24% 30.07 in 10.0 mi WSW 6.9 mph - N/A   Clear
12:55 AM 49.3 °F - 13.3 °F 24% 30.08 in 10.0 mi SSW 4.6 mph - N/A   Clear
1:15 AM 47.5 °F - 14.0 °F 26% 30.09 in 10.0 mi Calm Calm - N/A   Clear
1:35 AM 45.5 °F - 15.3 °F 30% 30.08 in 10.0 mi Calm Calm - N/A   Clear
1:55 AM 45.3 °F 41.6 °F 15.8 °F 31% 30.07 in 10.0 mi NE 6.9 mph - N/A   Clear
2:15 AM 44.4 °F - 16.3 °F 32% 30.08 in 10.0 mi Calm Calm - N/A   Clear
2:35 AM 43.9 °F 42.3 °F 17.6 °F 35% 30.09 in 10.0 mi NE 3.5 mph - N/A   Clear
2:55 AM 43.5 °F 40.1 °F 17.6 °F 35% 30.09 in 10.0 mi ENE 5.8 mph - N/A   Clear
3:15 AM 44.6 °F - 17.4 °F 34% 30.09 in 10.0 mi Calm Calm - N/A   Clear
3:35 AM 42.8 °F 39.3 °F 18.3 °F 37% 30.09 in 10.0 mi NE 5.8 mph - N/A   Clear
3:55 AM 43.2 °F 41.5 °F 18.0 °F 36% 30.09 in 10.0 mi NNE 3.5 mph - N/A   Clear
4:15 AM 42.3 °F 37.3 °F 18.5 °F 39% 30.08 in 10.0 mi East 8.1 mph - N/A   Clear
4:35 AM 41.5 °F 35.9 °F 19.0 °F 41% 30.09 in 10.0 mi ENE 9.2 mph - N/A   Clear
4:55 AM 42.1 °F - 19.0 °F 40% 30.09 in 10.0 mi Calm Calm - N/A   Clear
5:15 AM 41.9 °F 39.0 °F 19.2 °F 40% 30.09 in 10.0 mi ENE 4.6 mph - N/A   Clear
5:35 AM 41.9 °F - 19.6 °F 41% 30.10 in 10.0 mi Calm Calm - N/A   Clear
5:55 AM 41.4 °F 38.4 °F 19.6 °F 42% 30.11 in 10.0 mi ENE 4.6 mph - N/A   Clear
6:15 AM 41.5 °F 35.9 °F 19.9 °F 42% 30.11 in 10.0 mi ENE 9.2 mph - N/A   Clear
6:35 AM 41.2 °F 38.2 °F 20.3 °F 43% 30.12 in 10.0 mi NE 4.6 mph - N/A   Clear
6:55 AM 41.2 °F 39.2 °F 21.0 °F 45% 30.13 in 10.0 mi North 3.5 mph - N/A   Scattered Clouds
7:15 AM 41.2 °F 36.6 °F 21.2 °F 45% 30.14 in 10.0 mi NNW 6.9 mph - N/A   Clear
7:35 AM 41.4 °F - 20.8 °F 44% 30.15 in 10.0 mi Calm Calm - N/A   Clear
7:55 AM 42.4 °F - 21.0 °F 43% 30.15 in 10.0 mi Calm Calm - N/A   Clear
8:15 AM 44.4 °F - 21.0 °F 39% 30.16 in 10.0 mi Calm Calm - N/A   Clear
8:35 AM 46.2 °F - 20.8 °F 37% 30.17 in 10.0 mi Calm Calm - N/A   Clear
8:55 AM 47.1 °F - 20.8 °F 35% 30.18 in 10.0 mi Calm Calm - N/A   Clear
9:15 AM 48.7 °F - 20.1 °F 32% 30.17 in 10.0 mi East 5.8 mph - N/A   Clear
9:35 AM 49.1 °F - 20.1 °F 32% 30.17 in 10.0 mi ENE 3.5 mph - N/A   Clear
9:55 AM 49.8 °F - 19.8 °F 31% 30.17 in 10.0 mi East 3.5 mph - N/A   Clear
10:15 AM 51.6 °F - 19.8 °F 29% 30.16 in 10.0 mi Calm Calm - N/A   Clear
10:35 AM 52.2 °F - 19.2 °F 27% 30.16 in 10.0 mi Calm Calm - N/A   Clear
10:55 AM 53.6 °F - 18.5 °F 25% 30.16 in 10.0 mi Calm Calm - N/A   Clear
11:15 AM 55.4 °F - 18.5 °F 24% 30.17 in 10.0 mi ENE 5.8 mph - N/A   Clear
11:35 AM 56.1 °F - 18.9 °F 23% 30.16 in 10.0 mi ENE 6.9 mph - N/A   Clear
11:55 AM 57.0 °F - 18.3 °F 22% 30.16 in 10.0 mi ESE 10.4 mph - N/A   Scattered Clouds
12:15 PM 55.9 °F - 18.0 °F 23% 30.15 in 10.0 mi SE 6.9 mph - N/A   Clear
12:35 PM 56.8 °F - 18.0 °F 22% 30.14 in 10.0 mi SE 10.4 mph - N/A   Scattered Clouds
12:55 PM 57.0 °F - 17.6 °F 21% 30.13 in 10.0 mi SE 9.2 mph - N/A   Scattered Clouds
1:15 PM 58.5 °F - 17.4 °F 20% 30.12 in 10.0 mi South 4.6 mph - N/A   Clear
1:35 PM 59.2 °F - 16.9 °F 19% 30.11 in 10.0 mi ESE 4.6 mph - N/A   Clear
1:55 PM 59.4 °F - 16.5 °F 19% 30.11 in 10.0 mi SE 6.9 mph - N/A   Clear
2:15 PM 59.9 °F - 16.2 °F 18% 30.10 in 10.0 mi ESE 5.8 mph - N/A   Clear
2:35 PM 61.5 °F - 15.8 °F 17% 30.10 in 10.0 mi West 9.2 mph 18.4 mph N/A   Clear
2:55 PM 60.3 °F - 17.2 °F 19% 30.11 in 10.0 mi West 13.8 mph 20.7 mph N/A   Clear
3:15 PM 58.3 °F - 18.0 °F 21% 30.11 in 10.0 mi West 18.4 mph 23.0 mph N/A   Clear
3:35 PM 58.1 °F - 18.5 °F 21% 30.11 in 10.0 mi West 17.3 mph 21.9 mph N/A   Clear
3:55 PM 57.9 °F - 18.3 °F 21% 30.12 in 10.0 mi WSW 15.0 mph 26.5 mph N/A   Clear
4:15 PM 57.4 °F - 17.6 °F 21% 30.13 in 10.0 mi WSW 16.1 mph 24.2 mph N/A   Clear
4:35 PM 57.4 °F - 17.6 °F 21% 30.13 in 10.0 mi WSW 17.3 mph 21.9 mph N/A   Clear
4:55 PM 57.2 °F - 16.9 °F 21% 30.13 in 10.0 mi West 17.3 mph 20.7 mph N/A   Clear
5:15 PM 55.9 °F - 16.7 °F 21% 30.14 in 10.0 mi WSW 17.3 mph - N/A   Clear
5:35 PM 54.9 °F - 16.9 °F 22% 30.15 in 10.0 mi WSW 15.0 mph - N/A   Clear
5:55 PM 54.5 °F - 17.6 °F 23% 30.15 in 10.0 mi WSW 13.8 mph 18.4 mph N/A   Clear
6:15 PM 53.4 °F - 18.0 °F 25% 30.15 in 10.0 mi WSW 12.7 mph 16.1 mph N/A   Clear
6:35 PM 52.9 °F - 18.3 °F 26% 30.15 in 10.0 mi SW 9.2 mph - N/A   Clear
6:55 PM 52.7 °F - 18.5 °F 26% 30.17 in 10.0 mi SW 9.2 mph 17.3 mph N/A   Clear
7:15 PM 51.6 °F - 19.0 °F 28% 30.17 in 10.0 mi WSW 8.1 mph - N/A   Clear
7:35 PM 50.9 °F - 19.4 °F 29% 30.17 in 10.0 mi WSW 9.2 mph - N/A   Clear
7:55 PM 49.8 °F - 19.9 °F 31% 30.17 in 10.0 mi Calm Calm - N/A   Clear
8:15 PM 50.2 °F - 19.4 °F 30% 30.18 in 10.0 mi Calm Calm - N/A   Clear
8:35 PM 46.9 °F - 21.0 °F 36% 30.18 in 10.0 mi SW 3.5 mph - N/A   Clear
8:55 PM 50.2 °F - 19.6 °F 30% 30.19 in 10.0 mi Calm Calm - N/A   Clear
9:15 PM 47.5 °F - 20.7 °F 35% 30.19 in 10.0 mi SE 4.6 mph - N/A   Clear
9:35 PM 47.3 °F - 20.8 °F 35% 30.19 in 10.0 mi Calm Calm - N/A   Clear
9:55 PM 46.0 °F 43.9 °F 21.4 °F 38% 30.19 in 10.0 mi SSE 4.6 mph - N/A   Clear
10:15 PM 47.3 °F - 21.2 °F 36% 30.20 in 10.0 mi Calm Calm - N/A   Clear
10:35 PM 46.8 °F - 21.2 °F 36% 30.20 in 10.0 mi Calm Calm - N/A   Clear
10:50 PM 46.6 °F - 21.2 °F 37% 30.20 in 10.0 mi Calm Calm - N/A   Clear
11:15 PM 46.2 °F 43.3 °F 21.2 °F 37% 30.20 in 10.0 mi SW 5.8 mph - N/A   Clear
11:35 PM 47.3 °F - 21.0 °F 35% 30.20 in 10.0 mi Calm Calm - N/A   Clear
11:55 PM 47.7 °F - 20.8 °F 35% 30.19 in 10.0 mi SW 3.5 mph - N/A   Clear